Lid_Strength_Index
-1 -0 0 0 1 1 1 1 1 1 1 0 1 1 1 1 1 1 1 1 1 1 1 1 1 1 4 7 8 5 1 2 4 5 6 6 8 8 9 9 8 9 9 8 8 8 8
-1 -1 -0 0 1 1 1 1 1 1 1 0 0 1 1 1 1 1 1 1 1 1 1 1 1 2 5 8 5 4 5 4 4 5 6 6 7 7 8 9 9 8 8 8 8 8 8
-1 -1 -1 -0 0 1 1 1 1 1 1 1 1 1 1 1 1 1 1 1 0 1 1 1 1 6 5 7 5 4 5 5 5 5 7 6 6 7 7 9 8 9 10 9 9 8 9
-1 -1 -1 -0 0 0 1 1 1 1 1 1 1 1 1 1 1 1 1 1 1 1 1 1 1 5 7 5 4 5 5 5 5 5 6 6 6 7 7 8 9 10 10 11 9 9 8
-1 -1 -1 -0 -0 0 0 1 1 1 1 1 1 1 1 1 1 1 2 2 1 1 2 3 5 5 8 5 6 5 5 6 6 6 6 7 6 8 8 9 10 10 12 11 11 10 10
-1 -1 -1 -0 0 0 0 1 1 1 1 2 2 2 2 2 2 2 3 2 2 3 5 6 6 7 7 8 7 6 6 6 7 7 7 7 7 8 8 9 12 12 12 11 11 10 11
-0 -0 -0 -0 0 0 0 1 1 1 1 2 2 2 2 2 2 3 4 5 6 6 6 8 8 8 8 6 6 6 7 7 7 7 8 8 8 10 11 11 11 12 12 12 10 10 12
-0 -0 -0 -0 0 0 0 1 1 1 2 2 2 3 3 3 3 3 3 6 7 6 8 8 8 8 8 7 8 6 6 8 8 9 8 9 9 10 11 11 12 11 12 11 10 11 12
0 0 0 0 0 0 1 1 1 1 2 2 3 3 3 3 3 3 5 6 4 5 8 8 8 8 8 7 8 7 7 8 9 9 9 10 10 11 11 11 11 10 11 12 13 11 10
0 0 0 1 0 0 1 1 1 1 2 3 3 3 3 4 3 4 6 5 4 4 9 9 8 7 7 7 8 7 7 8 9 10 10 9 10 11 11 11 12 13 11 12 13 13 14
0 0 1 1 1 1 1 1 1 1 2 2 3 3 3 4 3 5 5 4 4 4 16 9 8 5 7 8 8 7 7 8 9 9 9 9 11 11 11 11 11 11 12 12 13 13 13
1 1 1 1 1 1 1 1 1 1 2 2 2 2 3 2 2 4 4 3 3 10 19 9 7 8 8 8 8 7 8 7 8 10 9 9 10 10 10 11 12 11 12 11 12 13 16
2 2 2 2 2 1 1 1 2 2 2 3 3 3 3 3 4 3 3 3 10 13 8 9 9 8 9 9 9 9 9 9 9 11 11 10 10 10 11 12 11 11 11 15 16 17 16
1 2 1 1 1 1 1 1 1 1 2 3 3 3 3 3 2 2 2 7 13 10 9 8 9 8 10 9 9 9 9 10 9 10 10 12 14 11 11 11 12 12 12 14 19 17 15
0 0 -0 -0 0 0 1 1 1 2 2 2 3 0 1 2 2 2 5 10 11 9 8 9 8 10 9 9 10 9 9 9 9 9 11 11 12 11 12 12 12 12 14 12 14 13 16
-0 0 -0 -1 -1 0 1 1 1 1 2 2 2 2 2 1 1 2 7 10 8 8 8 9 10 9 10 9 10 10 9 8 10 9 9 10 13 11 13 12 13 13 12 15 14 18 19
0 0 -0 -0 0 1 1 1 1 1 2 2 1 4 1 1 1 4 9 9 8 8 8 9 9 10 9 10 10 10 9 9 10 11 10 10 11 12 12 13 12 15 14 14 14 14 19
0 0 0 0 1 1 1 1 1 1 2 1 2 7 1 1 6 6 8 7 9 8 8 8 9 9 9 9 10 10 10 9 9 10 11 10 11 13 12 12 12 12 12 12 16 17 15
0 0 0 1 1 1 1 1 1 1 2 2 5 5 1 2 9 8 7 7 7 8 8 9 9 9 9 10 11 9 9 8 9 10 11 11 12 15 14 13 13 14 12 13 13 13 16
2 2 1 1 1 1 1 1 1 1 2 2 4 8 4 3 4 7 8 8 9 7 8 9 9 9 10 11 9 10 10 9 9 10 10 10 12 13 17 14 11 15 14 13 14 17 15
4 4 3 2 2 1 1 1 1 1 2 2 4 7 6 8 7 7 7 8 9 9 8 9 10 10 10 12 10 11 10 10 10 10 11 11 15 14 13 12 12 12 13 12 15 14 16
6 5 5 4 4 4 4 4 2 2 2 3 6 6 5 6 6 7 8 9 9 8 8 9 11 9 10 11 11 12 11 10 11 12 13 12 15 15 15 12 12 14 12 12 12 12 12
7 6 6 6 5 5 5 5 5 4 3 4 4 5 7 8 8 8 8 8 9 8 8 8 9 10 10 9 8 8 8 9 10 11 14 14 15 16 17 12 13 16 12 11 11 10 11
7 7 7 7 7 6 6 6 5 5 5 5 5 6 9 11 10 9 8 8 9 9 10 9 9 10 8 7 7 7 8 8 8 9 9 14 15 15 16 15 20 11 10 10 12 14 15
6 6 6 7 7 7 7 7 6 6 5 5 5 7 9 11 10 10 9 9 8 8 9 9 7 6 6 8 11 12 12 11 10 9 9 8 12 15 17 17 14 12 13 13 12 17 17
7 7 6 6 6 6 6 6 6 6 5 5 4 4 6 9 10 8 8 8 10 9 9 7 6 6 7 9 12 16 16 13 13 11 12 11 9 14 15 18 19 15 15 14 13 17 17
6 7 7 7 7 6 6 6 6 6 5 5 5 3 5 8 7 8 9 9 8 9 9 8 7 8 7 10 13 15 15 12 16 15 14 13 13 15 16 17 15 19 16 15 16 19 17
6 6 6 6 6 6 6 6 6 5 5 4 4 2 3 6 5 5 5 6 7 7 10 8 9 8 9 12 13 13 14 12 13 12 13 14 15 15 15 17 18 18 16 17 19 16 17
6 6 6 6 6 6 6 6 6 5 4 4 6 3 1 5 6 3 3 3 3 4 6 6 8 8 8 10 11 11 13 13 13 16 9 15 15 15 18 20 18 18 18 17 17 17 17